[[{"header":{"parameterUnit":"m.s-1","parameterCategory":1,"la1":30.2991,"la2":30.254,"lo1":-89.0895,"lo2":-89.0444,"dy":0.0017,"dx":0.0017,"nx":28,"ny":28,"refTime":"2025-06-17T21:00:00:Z","depth":0,"parameterNumber":2,"parameterNumberName":"U-component_of_WINDS"},"data":[0,0,0,0,0,0,0,0,0,0,0,0,0,0,0,0,0,0,0,0,0,0,0,0,0,0,0,0,0,0,0,0,0,0,0,0,0,0,0,0,0,0,0,0,0,0,0,0,0,0,0,0,0,0,0,0,0,0,1.3193,1.3193,0,1.3229,1.3229,1.323,1.3166,1.3163,1.3161,1.3159,1.3197,1.32,1.3203,0,0,0,0,0,0,0,0,0,0,0,0,0,1.3068,1.3071,1.3193,1.3193,1.3194,1.3229,1.3229,1.323,1.3166,1.3163,1.3161,1.3158,1.3196,1.32,1.3203,0,0,0,0,0,0,0,0,0,0,0,0,0,1.3115,1.3071,1.3193,1.3166,1.3164,1.3229,1.3229,1.323,1.3167,1.3163,1.316,1.3157,1.3195,1.3199,1.3204,1.3297,0,0,1.3218,1.322,0,0,0,0,0,0,0,0,1.3112,1.312,1.3169,1.3168,1.3166,1.3189,1.3199,1.3252,1.3167,1.3166,1.3159,1.3155,1.3197,1.3201,1.3215,1.3298,1.33,1.3218,1.3221,1.3223,1.3224,0,0,0,0,0,0,0,1.3109,1.3118,1.3207,1.317,1.3168,1.3152,1.3155,1.3209,1.3199,1.3165,1.3161,1.3166,1.3196,1.3211,1.3216,1.33,1.3218,1.3222,1.3225,1.3227,1.3459,1.3463,0,0,0,0,0,0,1.3109,1.3115,1.3206,1.3208,1.313,1.3157,1.316,1.3185,1.3198,1.3197,1.3169,1.3163,1.3205,1.321,1.3217,1.3325,1.3223,1.3227,1.323,1.3456,1.346,1.3464,0,0,0,0,0,0,1.3107,1.3118,1.3204,1.316,1.317,1.3162,1.3191,1.3187,1.3203,1.3201,1.3199,1.3186,1.3203,1.321,1.3277,1.3325,1.3229,1.3233,1.3452,1.3457,1.3462,1.3542,0,0,0,0,0,0,1.3103,1.3117,1.3153,1.3162,1.3173,1.3264,1.3194,1.3191,1.3211,1.3203,1.3217,1.3216,1.3201,1.327,1.3281,1.333,1.3237,1.3447,1.3454,1.346,1.3535,1.355,1.3562,0,0,0,0,0,1.3099,1.3175,1.3155,1.3166,1.3217,1.3267,1.3273,1.3254,1.3215,1.325,1.3248,1.3215,1.3318,1.3278,1.3289,1.334,1.3444,1.3452,1.346,1.3529,1.3547,1.3562,0,0,0,0,0,0,1.3172,1.3175,1.3153,1.3234,1.3251,1.3256,1.33,1.3273,1.3302,1.3294,1.3269,1.3272,1.3343,1.3348,1.3303,1.3429,1.3375,1.3385,1.3424,1.344,1.3453,1.345,1.324,0,0,0,0,0,1.3197,1.3238,1.3238,1.3309,1.3319,1.3308,1.3329,1.3313,1.3329,1.3336,1.3339,1.3356,1.3392,1.3417,1.345,1.3536,1.3537,1.3576,1.359,1.3601,1.361,1.3654,1.3671,1.3489,1.3489,1.3489,0,0,1.325,1.3257,1.3284,1.3324,1.3335,1.3377,1.3315,1.3362,1.3393,1.3343,1.3405,1.3409,1.3426,1.3502,1.3536,1.3508,1.366,1.3611,1.3619,1.3623,1.3664,1.3681,1.3697,1.3495,1.3494,1.3493,0,0,1.3368,1.3378,1.3437,1.3449,1.3466,1.3458,1.3473,1.3482,1.3482,1.3544,1.3507,1.3543,1.3606,1.3619,1.3634,1.3756,1.3726,1.3767,1.3837,1.388,1.3895,1.3907,1.3949,1.3965,1.3777,1.3777,1.3777,0,1.3432,1.3494,1.3471,1.3521,1.3539,1.3495,1.3555,1.3567,1.3595,1.3608,1.3577,1.3654,1.3662,1.374,1.377,1.3784,1.3799,1.3766,1.3894,1.3907,1.3918,1.3958,1.3974,1.3782,1.3781,1.3781,1.378,0,1.357,1.3614,1.366,1.3686,1.371,1.3764,1.3749,1.3776,1.3757,1.3752,1.3815,1.3824,1.3857,1.3875,1.3858,1.395,1.3932,1.3898,1.3843,1.3941,1.3978,1.3993,1.3789,1.3787,1.3785,1.3784,0,0,1.3735,1.3748,1.3765,1.3776,1.3791,1.3824,1.3876,1.3908,1.3931,1.3951,1.3993,1.4046,1.4014,1.4032,1.4015,1.4054,1.4147,1.4014,1.4014,1.4038,1.4249,1.4273,1.4292,1.4128,1.4131,1.4133,1.4247,0,1.3851,1.3941,1.3921,1.4009,1.4048,1.4007,1.4052,1.4066,1.4063,1.4095,1.4091,1.4129,1.4085,1.4095,1.4131,1.4129,1.4189,1.412,1.4166,1.4168,1.4163,1.4311,1.4338,1.4445,1.4261,1.4264,1.4265,0,1.3999,1.4023,1.4115,1.4122,1.4138,1.4179,1.4206,1.4238,1.4252,1.4247,1.4266,1.4241,1.4292,1.4236,1.4305,1.4259,1.4276,1.4278,1.4282,1.4285,1.4222,1.4317,1.4478,1.4494,1.4288,1.4286,1.4285,0,1.4108,1.4165,1.4226,1.4237,1.4247,1.4277,1.4283,1.4294,1.4314,1.4338,1.435,1.438,1.4396,1.4419,1.4403,1.4364,1.4475,1.4418,1.4471,1.4471,1.4496,1.4494,1.4661,1.4509,1.4509,1.4508,1.4508,0,1.4239,1.4297,1.4275,1.4313,1.4376,1.4353,1.4415,1.4416,1.4426,1.4463,1.443,1.4465,1.4442,1.4475,1.4463,1.4521,1.4529,1.4526,1.4522,1.4529,1.4529,1.4539,1.4531,1.4513,1.4512,1.4511,1.451,0,1.4372,1.4361,1.4425,1.4429,1.4431,1.4477,1.448,1.4515,1.4509,1.4556,1.4566,1.4556,1.4594,1.458,1.462,1.4612,1.4686,1.4673,1.4681,1.4677,1.4731,1.4726,1.491,1.4932,1.4766,1.4768,1.4769,0,1.4456,1.4499,1.4508,1.453,1.4538,1.4574,1.4594,1.4573,1.4595,1.4614,1.4646,1.468,1.4706,1.4768,1.4764,1.4794,1.4781,1.4843,1.4785,1.479,1.478,1.4777,1.4781,1.4855,1.4857,1.4858,1.4859,0,1.4606,1.4598,1.4628,1.4656,1.468,1.4701,1.4719,1.4739,1.4719,1.4745,1.4783,1.4803,1.4843,1.4877,1.4903,1.4909,1.4881,1.4878,1.4891,1.4898,1.4901,1.4899,1.4711,1.4874,1.4872,1.4871,1.487,1.487,1.4716,1.4752,1.4763,1.4797,1.4808,1.4826,1.4858,1.4856,1.4886,1.4917,1.4903,1.4946,1.4958,1.499,1.5,1.5032,1.5008,1.5028,1.5033,1.5038,1.5045,1.4896,1.5037,1.5037,1.5036,1.5036,1.5036,0,1.4863,1.4868,1.49,1.4925,1.4952,1.4923,1.4941,1.4965,1.5003,1.5017,1.5043,1.5085,1.5118,1.5116,1.5146,1.5173,1.516,1.5181,1.5178,1.518,1.5065,1.505,1.519,1.519,1.519,1.519,1.519,1.519,1.4942,1.5001,1.4994,1.5057,1.5061,1.5103,1.5115,1.5131,1.5141,1.519,1.5216,1.5215,1.5222,1.5252,1.528,1.5279,1.5291,1.5316,1.531,1.5203,1.5188,1.5173,1.5159,1.532,1.532,1.5422,1.5423,1.5423]},{"header":{"parameterUnit":"m.s-1","parameterCategory":1,"la1":30.2991,"la2":30.254,"lo1":-89.0895,"lo2":-89.0444,"dy":0.0017,"dx":0.0017,"nx":28,"ny":28,"refTime":"2025-06-17T21:00:00:Z","depth":0,"parameterNumber":3,"parameterNumberName":"V-component_of_WINDS"},"data":[0,0,0,0,0,0,0,0,0,0,0,0,0,0,0,0,0,0,0,0,0,0,0,0,0,0,0,0,0,0,0,0,0,0,0,0,0,0,0,0,0,0,0,0,0,0,0,0,0,0,0,0,0,0,0,0,0,0,5.1864,5.1866,0,5.2074,5.2076,5.2079,5.2061,5.2058,5.2055,5.2052,5.2263,5.2271,5.228,0,0,0,0,0,0,0,0,0,0,0,0,0,5.1441,5.1449,5.1864,5.1866,5.1869,5.2073,5.2076,5.2079,5.2062,5.2058,5.2054,5.205,5.226,5.227,5.228,0,0,0,0,0,0,0,0,0,0,0,0,0,5.1635,5.1452,5.1863,5.1885,5.1889,5.2073,5.2076,5.208,5.2063,5.2058,5.2053,5.2049,5.2257,5.2269,5.2282,5.2456,0,0,5.2321,5.2327,0,0,0,0,0,0,0,0,5.1624,5.1651,5.1879,5.1884,5.1889,5.2037,5.2005,5.2206,5.2064,5.1997,5.2052,5.2046,5.2191,5.2209,5.2259,5.2466,5.2475,5.2322,5.233,5.2335,5.2339,0,0,0,0,0,0,0,5.1611,5.1642,5.1947,5.1882,5.1888,5.1882,5.1904,5.2043,5.2118,5.2002,5.2001,5.2027,5.2193,5.2246,5.2263,5.2478,5.2322,5.2333,5.2341,5.2346,5.2835,5.284,0,0,0,0,0,0,5.1593,5.163,5.194,5.1953,5.1742,5.1894,5.1919,5.1994,5.2116,5.213,5.203,5.2025,5.2227,5.2249,5.2271,5.2481,5.2335,5.2347,5.2355,5.283,5.2836,5.2842,0,0,0,0,0,0,5.1584,5.1621,5.1931,5.1792,5.1831,5.1906,5.1991,5.2,5.2054,5.2138,5.215,5.2072,5.2224,5.2253,5.241,5.2488,5.2353,5.2365,5.2823,5.2832,5.2839,5.2903,0,0,0,0,0,0,5.1572,5.1618,5.1687,5.1793,5.1838,5.2069,5.1996,5.2008,5.2077,5.2072,5.218,5.2193,5.2222,5.2391,5.2422,5.2503,5.2375,5.2817,5.2827,5.2836,5.2894,5.2912,5.2928,0,0,0,0,0,5.1557,5.1696,5.169,5.1728,5.1926,5.2074,5.2099,5.2131,5.2083,5.2152,5.2205,5.219,5.2474,5.2407,5.2443,5.2528,5.2812,5.2824,5.2836,5.2887,5.2909,5.2927,0,0,0,0,0,0,5.1596,5.1711,5.1705,5.1884,5.1969,5.207,5.2158,5.2153,5.2253,5.2244,5.2278,5.2302,5.246,5.251,5.2432,5.2701,5.2636,5.2656,5.2663,5.2685,5.2701,5.2685,5.2386,0,0,0,0,0,5.1625,5.1737,5.1831,5.1979,5.2022,5.2083,5.2148,5.2165,5.2254,5.229,5.2355,5.2441,5.2549,5.262,5.2724,5.2901,5.2923,5.2978,5.2994,5.3007,5.3024,5.3118,5.3143,5.2881,5.2881,5.288,0,0,5.1687,5.1763,5.1832,5.1988,5.2057,5.2169,5.2113,5.2236,5.2319,5.2308,5.246,5.251,5.2608,5.2775,5.2852,5.2822,5.3101,5.3023,5.3033,5.3042,5.3133,5.3157,5.3179,5.2889,5.2887,5.2886,0,0,5.1857,5.1927,5.2057,5.2126,5.223,5.2269,5.23,5.2402,5.2435,5.2589,5.2582,5.268,5.2867,5.2936,5.2996,5.3188,5.3177,5.3221,5.3308,5.3399,5.342,5.3438,5.3505,5.3528,5.3237,5.3237,5.3238,0,5.192,5.2092,5.2124,5.2247,5.2314,5.231,5.244,5.2505,5.2638,5.2683,5.2648,5.288,5.2946,5.3128,5.3174,5.3224,5.3258,5.3209,5.3415,5.3433,5.3451,5.3515,5.354,5.3242,5.3241,5.3241,5.3241,0,5.2163,5.2281,5.2373,5.2502,5.258,5.2706,5.2754,5.2829,5.2838,5.288,5.3034,5.3112,5.3231,5.3276,5.3286,5.3458,5.3436,5.3408,5.3343,5.348,5.354,5.3565,5.3248,5.3247,5.3245,5.3244,0,0,5.2364,5.2507,5.254,5.2597,5.271,5.2802,5.2926,5.3043,5.3105,5.3196,5.3299,5.3456,5.3429,5.3497,5.3514,5.3595,5.3739,5.3556,5.3559,5.3585,5.393,5.395,5.3978,5.3733,5.3737,5.3741,5.3921,0,5.2544,5.2766,5.2797,5.2992,5.31,5.3096,5.3204,5.3283,5.3325,5.3421,5.3467,5.3576,5.3534,5.3575,5.3654,5.3705,5.3808,5.3692,5.3826,5.3831,5.3801,5.401,5.4032,5.4199,5.3945,5.3949,5.3952,0,5.2784,5.2881,5.3087,5.3183,5.3229,5.3326,5.3434,5.3527,5.3616,5.364,5.3715,5.3722,5.3847,5.3777,5.3949,5.3869,5.3926,5.3958,5.3966,5.3978,5.3899,5.4027,5.4253,5.4277,5.399,5.3987,5.3984,0,5.2907,5.309,5.3236,5.3285,5.3401,5.3468,5.3519,5.3604,5.3671,5.3765,5.3809,5.3916,5.3974,5.4055,5.409,5.4036,5.4259,5.4192,5.428,5.4279,5.4327,5.4323,5.4563,5.4366,5.4365,5.4365,5.4364,0,5.3104,5.323,5.3293,5.3383,5.3522,5.3555,5.3691,5.374,5.3814,5.3911,5.3914,5.4005,5.4046,5.4142,5.417,5.4306,5.4333,5.4354,5.436,5.4353,5.435,5.439,5.4379,5.4371,5.437,5.4369,5.4367,0,5.3266,5.3313,5.3472,5.3568,5.3595,5.3694,5.3775,5.386,5.39,5.4023,5.4053,5.4116,5.4229,5.4271,5.4409,5.4428,5.4585,5.4582,5.4555,5.4556,5.4641,5.4632,5.4914,5.4952,5.473,5.4732,5.4734,0,5.3388,5.3484,5.3591,5.3656,5.371,5.3816,5.3884,5.392,5.399,5.4097,5.4169,5.4282,5.4374,5.4554,5.4611,5.4715,5.4714,5.4805,5.4729,5.4719,5.4713,5.4706,5.4715,5.4819,5.4821,5.4823,5.4825,0,5.3598,5.3617,5.3716,5.3824,5.3906,5.3992,5.4075,5.4128,5.4175,5.4254,5.437,5.4442,5.4582,5.4693,5.48,5.485,5.4845,5.4848,5.4874,5.4868,5.4847,5.4857,5.4592,5.4841,5.484,5.4839,5.4838,5.4837,5.3743,5.3827,5.3915,5.4025,5.4091,5.4168,5.4253,5.4303,5.4401,5.4518,5.4532,5.4656,5.4739,5.4882,5.4937,5.5033,5.5008,5.5045,5.5055,5.5063,5.5068,5.4833,5.5052,5.5052,5.5051,5.5051,5.5051,0,5.3952,5.4008,5.4109,5.4225,5.4311,5.4299,5.439,5.4462,5.4571,5.465,5.474,5.4872,5.4979,5.5043,5.5149,5.5213,5.5213,5.524,5.5235,5.5246,5.5085,5.5052,5.5238,5.5238,5.5238,5.5238,5.5238,5.5238,5.4071,5.4212,5.424,5.4413,5.4468,5.459,5.4642,5.4712,5.4775,5.4922,5.5011,5.5053,5.5125,5.5236,5.5332,5.5348,5.5387,5.5415,5.5428,5.5277,5.5258,5.5239,5.5208,5.5424,5.5424,5.5581,5.5583,5.5584]}]]